ONEWEB-0034, 45454

Orbit data source: Space-Track

ONEWEB-0034, 45454 is a payload satellite owned by One Web (UK) in LEO that was launched on Sat, 21 Mar 2020 UTC via a SOYUZ-2-1B launch vehicle from the Tyuratam Missile And Space Complex (TTMTR). Payload-class satellites include a variety of spacecraft equipped with specific instruments for various scientific and technological missions. These include communications satellites like Starlink; space stations such as the ISS; scientific satellites like the Hubble; Earth observation satellites from companies like Planet Labs, Umbra, and HawkEye 360; GPS; miniature CubeSats for education and research; and military/defense satellites.

Loading next visibility...
Identifier
45454, 2020-020AG
Orbit
LEO
Country
Flag of UKUK
Related business
Manufacturer
One Web
Mission
Operational Commercial Communications
Bus & Motor
ARROW, Unknown motor
Mass
148 kg wet, ~140 kg dry
Launch date (UTC)
2020-03-21 (6 years ago)
Launch vehicle
SOYUZ-2-1B
Launch site
Tyuratam Missile And Space Complex (TTMTR)
Object type
Payload
Rocket body
Debris
Shape & HBR
Trap Box + 2 Pan, 6.7 m
Radar Cross Section
3.464 m², Large (>1 m²)

Expand to show TLE details & history
Last TLE update: 1 day ago

TLE from 1 day ago
0 ONEWEB-0034
1 45454U 20020AG  25348.71621124  .00000416  00000-0  11371-2 0  9998
2 45454  87.8861  57.7886 0001759 101.7875 258.3451 13.11417375278417
Epoch: 2025-12-14T17:11Z
TLE epoch observation values (Epoch: 2025-12-14T17:11:20.651Z)
Latitude
0.00007°
Longitude
76.32742°
Altitude
1,220.84 km
Speed
7.244 km/s
True Right ascension
03h 51m 09s
True Declination
0° 00' 00"
Sunlit
Object was in full shadow at epoch
Visualization orbit readout
Latitude
Unknown
Longitude
Unknown
Altitude
Unknown
Speed
Unknown
Apparent Right ascension
Unknown
Apparent Declination
Unknown
Sunlit
N/A
Visualization observer readout
Local Sidereal Time
19:04:59
Azimuth
Unknown
Elevation
Unknown
Doppler factor
Unknown
Orbital elements
Apogee altitude
1,216.135 km
Perigee altitude
1,213.464 km
Semi-major axis
7,592.936 km
Eccentricity
0.00018
Inclination
87.8861°
RAAN
57.7886°
Arg. of periapsis
101.7875°
True anomaly
258.32536°
Mean anomaly
258.3451°
Eccentric anomaly
258.33523°
Mean motion
3.28041 °/min
Orbital period
109.74 mins
BSTAR
0.0011371
Loading maneuver chart data...
Computing Atmospheric mass density...
Loading historical data...
Loading historical data...
Loading historical data...
Loading historical data...
Loading historical data...
Loading historical data...
Loading historical data...

Documentation

Showing up to 5 results
|